This is the latest recevied weather packets stored in our database for station/object KC2TER. If no packets are shown the sender has not sent any weather packets the latest 1 day(s).
| Time | Temp. | Humidity | Pressure | Rain* | Wind** | Luminosity | Snow |
|---|---|---|---|---|---|---|---|
| 1778087542 | 18.33° C | 86% | 1008.5 hPa | 0 mm | - | 285 W/m² | - |
| 1778086331 | 17.78° C | 88% | 1009.3 hPa | 0 mm | - | 209 W/m² | - |
| 1778084813 | 18.33° C | 84% | 1009.5 hPa | 0 mm | - | 129 W/m² | - |
| 1778083602 | 18.89° C | 81% | 1009.5 hPa | 0 mm | - | 106 W/m² | - |
| 1778083299 | 19.44° C | 79% | 1009.6 hPa | 0 mm | - | 106 W/m² | - |
| 1778081556 | 20° C | 76% | 1009.6 hPa | 0 mm | - | 356 W/m² | - |
| 1778081253 | 20° C | 75% | 1009.7 hPa | 0 mm | - | 192 W/m² | - |
| 1778080042 | 20° C | 75% | 1009.9 hPa | 0 mm | - | 125 W/m² | - |
| 1778078527 | 20° C | 75% | 1009.6 hPa | 0 mm | - | 254 W/m² | - |
| 1778077318 | 22.22° C | 64% | 1009.6 hPa | 0 mm | - | 232 W/m² | - |
| 1778075805 | 21.67° C | 65% | 1009.6 hPa | 0 mm | - | 233 W/m² | - |
| 1778074591 | 21.67° C | 67% | 1010.2 hPa | 0 mm | - | 234 W/m² | - |
| 1778074288 | 21.67° C | 67% | 1010.2 hPa | 0 mm | - | 234 W/m² | - |
| 1778072773 | 20° C | 72% | 1010.2 hPa | 0 mm | - | 208 W/m² | - |
| 1778071866 | 18.89° C | 75% | 1010.1 hPa | 0 mm | - | 99 W/m² | - |
| 1778071261 | 18.33° C | 77% | 1010.4 hPa | 0 mm | - | 87 W/m² | - |
| 1778070657 | 18.89° C | 77% | 1010.1 hPa | 0 mm | - | 92 W/m² | - |
| 1778070353 | 18.33° C | 77% | 1010.2 hPa | 0 mm | - | 116 W/m² | - |
| 1778069143 | 18.33° C | 77% | 1010.3 hPa | 0 mm | - | 105 W/m² | - |
| 1778068236 | 18.33° C | 78% | 1010.5 hPa | 0 mm | - | 219 W/m² | - |
| 1778067933 | 17.78° C | 79% | 1010.4 hPa | 0 mm | - | 160 W/m² | - |
| 1778067329 | 17.78° C | 80% | 1010.7 hPa | 0 mm | - | 104 W/m² | - |
| 1778067026 | 17.22° C | 80% | 1010.6 hPa | 0 mm | - | 82 W/m² | - |
| 1778066420 | 17.22° C | 81% | 1010.7 hPa | 0 mm | - | 44 W/m² | - |
| 1778066118 | 17.22° C | 81% | 1010.6 hPa | 0 mm | - | 46 W/m² | - |
* Rain latest hour (hover to see other rain measurements)
** Current wind speed in m/s (hover to see current wind gust speed)